IA5ITY-13 Weather Reports


time (UTC)temp
C
wind
direction
speed
KPH
gust
KPH
rain 1hr
cm
rain 24hr
cm
rain mn
cm
humidity
%
barometer
mb
20260505070509 17 112 1.6 1.6 0.00 0.00 0.00 99 1012.1
20260505070031 17 33 0.0 0.0 0.00 0.00 0.00 99 1011.9
20260505065509 17 79 0.0 0.0 0.00 0.00 0.00 99 1011.9
20260505065014 17 73 0.0 0.0 0.00 0.00 0.00 99 1011.8
20260505064512 17 98 1.6 1.6 0.00 0.00 0.00 99 1011.8
20260505064013 17 50 0.0 0.0 0.00 0.00 0.00 99 1011.9
20260505063509 17 80 0.0 0.0 0.00 0.00 0.00 99 1012.0
20260505063021 17 93 0.0 0.0 0.00 0.00 0.00 99 1011.7
20260505062509 17 73 3.2 3.2 0.00 0.00 0.00 99 1011.6
20260505062013 17 72 0.0 0.0 0.00 0.00 0.00 99 1011.7
20260505061512 17 77 0.0 0.0 0.00 0.00 0.00 99 1011.7
20260505061012 17 91 0.0 0.0 0.00 0.00 0.00 99 1011.7
20260505060509 17 111 0.0 0.0 0.00 0.00 0.00 99 1011.6
20260505060032 17 71 0.0 0.0 0.00 0.00 0.00 99 1011.5
20260505055508 17 70 1.6 3.2 0.00 0.00 0.00 99 1011.5
20260505055011 17 95 0.0 0.0 0.00 0.00 0.00 99 1011.4
20260505054512 17 75 1.6 1.6 0.00 0.00 0.00 99 1011.5
20260505054012 17 86 0.0 0.0 0.00 0.00 0.00 99 1011.5
20260505053509 17 83 0.0 0.0 0.00 0.00 0.00 99 1011.4
20260505053022 17 112 0.0 0.0 0.00 0.00 0.00 99 1011.3
20260505052509 17 66 0.0 0.0 0.00 0.00 0.00 99 1011.2
20260505052012 17 209 4.8 4.8 0.00 0.00 0.00 99 1011.1
20260505051512 17 131 0.0 0.0 0.00 0.00 0.00 99 1011.2
20260505051012 17 239 0.0 0.0 0.00 0.00 0.00 99 1011.2
20260505050509 17 187 3.2 3.2 0.00 0.00 0.00 99 1011.3
20260505041512 17 232 4.8 4.8 0.00 0.00 0.00 99 1011.2
20260505041012 17 228 20.9 27.4 0.00 0.00 0.00 99 1011.1
20260505040509 17 85 1.6 12.9 0.00 0.00 0.00 99 1011.1
20260505040033 17 334 6.4 6.4 0.00 0.00 0.00 99 1010.9
20260505035508 17 318 0.0 0.0 0.00 0.00 0.00 99 1011.0
20260505035011 17 177 0.0 0.0 0.00 0.00 0.00 99 1011.1
20260505034512 17 2 0.0 0.0 0.00 0.00 0.00 99 1011.0
20260505034013 17 217 6.4 6.4 0.00 0.00 0.00 99 1011.0
20260505033508 17 196 0.0 0.0 0.00 0.00 0.00 99 1011.2
20260505033022 17 231 0.0 0.0 0.00 0.00 0.00 99 1011.1
20260505032508 17 12 0.0 0.0 0.00 0.00 0.00 99 1011.1
20260505032012 17 102 0.0 0.0 0.00 0.00 0.00 99 1011.3
20260505031512 17 251 0.0 0.0 0.00 0.00 0.00 99 1011.7
20260505031013 17 232 0.0 0.0 0.00 0.00 0.00 99 1011.6
20260505030509 17 260 0.0 0.0 0.00 0.00 0.00 99 1011.4
20260505030031 17 231 0.0 0.0 0.00 0.00 0.00 99 1011.6
20260505025508 17 63 0.0 0.0 0.00 0.00 0.00 99 1011.5
20260505025012 17 231 8.0 8.0 0.00 0.00 0.00 99 1011.5
20260505024512 17 201 6.4 9.7 0.00 0.00 0.00 99 1011.5
20260505024012 17 240 0.0 0.0 0.00 0.00 0.00 99 1011.6
20260505023508 17 222 0.0 0.0 0.00 0.00 0.00 99 1011.5
20260505023021 17 232 0.0 0.0 0.00 0.00 0.00 99 1011.7
20260505022508 16 285 0.0 0.0 0.00 0.00 0.00 99 1011.7
20260505022011 16 83 0.0 0.0 0.00 0.00 0.00 99 1011.9
20260505021512 16 256 3.2 6.4 0.00 0.00 0.00 99 1011.9
20260505021012 16 214 0.0 0.0 0.00 0.00 0.00 99 1011.8
20260505020509 16 205 0.0 0.0 0.00 0.00 0.00 99 1011.8
20260505020030 16 250 0.0 0.0 0.00 0.00 0.00 99 1011.9
20260505015509 16 204 0.0 0.0 0.00 0.00 0.00 99 1011.9
20260505015012 16 227 0.0 0.0 0.00 0.00 0.00 99 1012.0
20260505014512 16 226 0.0 0.0 0.00 0.00 0.00 99 1012.0
20260505014011 16 231 0.0 0.0 0.00 0.00 0.00 99 1012.0
20260505013509 16 213 0.0 0.0 0.00 0.00 0.00 99 1012.1
20260505013021 16 215 0.0 0.0 0.00 0.00 0.00 99 1012.0
20260505012508 16 170 0.0 0.0 0.00 0.00 0.00 99 1012.2
20260505012012 16 237 0.0 0.0 0.00 0.00 0.00 99 1012.2
20260505011512 16 217 0.0 0.0 0.00 0.00 0.00 99 1012.4
20260505011012 16 182 0.0 0.0 0.00 0.00 0.00 99 1012.3
20260505010508 16 176 0.0 0.0 0.00 0.00 0.00 99 1012.4
20260505010030 16 169 0.0 0.0 0.00 0.00 0.00 99 1012.4
20260505005509 16 190 0.0 0.0 0.00 0.00 0.00 99 1012.4
20260505005012 16 204 0.0 0.0 0.00 0.00 0.00 99 1012.6
20260505004512 16 223 0.0 0.0 0.00 0.00 0.00 99 1012.6
20260505004012 16 196 0.0 0.0 0.00 0.00 0.00 99 1012.7
20260505003509 16 227 0.0 0.0 0.00 0.00 0.00 99 1012.7
20260505003022 16 219 0.0 0.0 0.00 0.00 0.00 99 1012.7
20260505002509 16 156 0.0 0.0 0.00 0.00 0.00 99 1012.9
20260505002012 16 92 0.0 0.0 0.00 0.00 0.00 99 1013.0
20260505001512 16 122 0.0 0.0 0.00 0.00 0.00 99 1013.0
20260505001012 16 218 0.0 0.0 0.00 0.00 0.00 99 1013.0
20260505000509 16 97 0.0 0.0 0.00 0.00 0.00 99 1013.2
20260505000034 16 163 0.0 0.0 0.00 0.00 0.00 99 1013.2
20260504235509 16 110 0.0 0.0 0.00 0.00 0.00 99 1013.2
20260504235012 16 93 0.0 0.0 0.00 0.00 0.00 99 1013.3
20260504234512 16 113 0.0 0.0 0.00 0.00 0.00 99 1013.5
20260504234013 16 99 0.0 0.0 0.00 0.00 0.00 99 1013.7
20260504233022 16 69 0.0 0.0 0.00 0.00 0.00 99 1013.7
20260504232510 16 85 0.0 0.0 0.00 0.00 0.00 99 1013.8
20260504232012 16 69 0.0 0.0 0.00 0.00 0.00 99 1013.9
20260504231512 16 154 0.0 0.0 0.00 0.00 0.00 99 1014.0
20260504231013 16 86 0.0 0.0 0.00 0.00 0.00 99 1014.1
20260504230508 16 74 0.0 0.0 0.00 0.00 0.00 99 1014.1
20260504230033 16 117 0.0 0.0 0.00 0.00 0.00 99 1014.1
20260504225509 16 95 0.0 0.0 0.00 0.00 0.00 99 1014.3
20260504225012 16 130 0.0 0.0 0.00 0.00 0.00 99 1014.3
20260504224512 16 71 0.0 0.0 0.00 0.00 0.00 99 1014.3
20260504224012 16 126 0.0 0.0 0.00 0.00 0.00 99 1014.2
20260504223509 16 109 0.0 0.0 0.00 0.00 0.00 99 1014.4
20260504223023 16 100 0.0 0.0 0.00 0.00 0.00 99 1014.3
20260504222509 16 129 0.0 0.0 0.00 0.00 0.00 99 1014.5
20260504222013 16 146 0.0 0.0 0.00 0.00 0.00 99 1014.5
20260504221512 16 75 0.0 0.0 0.00 0.00 0.00 99 1014.6
20260504221012 16 83 0.0 0.0 0.00 0.00 0.00 99 1014.6
20260504220508 16 104 0.0 0.0 0.00 0.00 0.00 99 1014.7
20260504220032 16 109 0.0 0.0 0.00 0.00 0.00 99 1014.8
20260504215510 16 106 0.0 0.0 0.00 0.00 0.00 99 1014.8
20260504215012 16 100 1.6 1.6 0.00 0.00 0.00 99 1015.0
20260504214512 16 2 0.0 0.0 0.00 0.00 0.00 99 1015.0
20260504214012 16 110 0.0 0.0 0.00 0.00 0.00 99 1015.0
20260504213509 16 98 0.0 0.0 0.00 0.00 0.00 99 1015.0
20260504213023 16 173 0.0 0.0 0.00 0.00 0.00 99 1015.0
20260504212012 16 169 0.0 0.0 0.00 0.00 0.00 99 1015.1
20260504211512 17 234 0.0 0.0 0.00 0.00 0.00 99 1015.1
20260504211012 17 127 0.0 0.0 0.00 0.00 0.00 99 1015.1
20260504210509 17 157 0.0 0.0 0.00 0.00 0.00 99 1015.1
20260504210030 17 256 0.0 0.0 0.00 0.00 0.00 99 1015.3
20260504205509 17 93 0.0 0.0 0.00 0.00 0.00 99 1015.1
20260504205012 17 70 1.6 1.6 0.00 0.00 0.00 99 1015.2
20260504204513 17 84 0.0 0.0 0.00 0.00 0.00 99 1015.2
20260504204012 17 43 0.0 0.0 0.00 0.00 0.00 99 1015.2
20260504203510 17 186 0.0 0.0 0.00 0.00 0.00 99 1015.3
20260504203021 17 209 0.0 0.0 0.00 0.00 0.00 99 1015.3
20260504202012 17 11 0.0 0.0 0.00 0.00 0.00 99 1015.1
20260504201512 17 105 0.0 0.0 0.00 0.00 0.00 99 1015.2
20260504201013 17 121 0.0 0.0 0.00 0.00 0.00 99 1015.1
20260504200508 17 82 0.0 0.0 0.00 0.00 0.00 99 1015.1
20260504200031 17 76 0.0 0.0 0.00 0.00 0.00 99 1015.1
20260504195508 17 104 0.0 0.0 0.00 0.00 0.00 99 1015.2
20260504195012 17 139 0.0 0.0 0.00 0.00 0.00 99 1015.2
20260504194512 17 97 0.0 0.0 0.00 0.00 0.00 99 1015.1
20260504194012 17 94 0.0 0.0 0.00 0.00 0.00 99 1015.1
20260504193509 17 26 0.0 0.0 0.00 0.00 0.00 99 1015.0
20260504193025 17 96 0.0 0.0 0.00 0.00 0.00 99 1015.2
20260504192510 17 97 0.0 0.0 0.00 0.00 0.00 99 1015.2
20260504192013 17 65 0.0 0.0 0.00 0.00 0.00 98 1015.2
20260504191512 17 98 0.0 0.0 0.00 0.00 0.00 98 1015.2
20260504191013 17 102 0.0 0.0 0.00 0.00 0.00 98 1015.2
20260504190509 17 109 0.0 0.0 0.00 0.00 0.00 98 1015.2
20260504190030 17 36 0.0 0.0 0.00 0.00 0.00 98 1015.1
20260504185509 17 17 0.0 0.0 0.00 0.00 0.00 99 1015.1
20260504185012 17 59 0.0 0.0 0.00 0.00 0.00 99 1015.2
20260504184512 17 28 0.0 0.0 0.00 0.00 0.00 99 1015.0
20260504184013 17 87 0.0 0.0 0.00 0.00 0.00 99 1015.0
20260504183508 17 101 1.6 1.6 0.00 0.00 0.00 99 1015.0
20260504183022 17 63 0.0 0.0 0.00 0.00 0.00 99 1015.0
20260504182509 17 96 0.0 0.0 0.00 0.00 0.00 99 1015.1
20260504181512 17 145 0.0 0.0 0.00 0.00 0.00 97 1015.1
20260504181013 17 95 0.0 0.0 0.00 0.00 0.00 96 1015.1
20260504180508 17 109 0.0 0.0 0.00 0.00 0.00 96 1015.2
20260504175509 17 105 0.0 0.0 0.00 0.00 0.00 95 1015.0
20260504175012 17 53 0.0 0.0 0.00 0.00 0.00 94 1015.0
20260504174013 17 132 0.0 0.0 0.00 0.00 0.00 92 1015.0
20260504173513 17 79 0.0 0.0 0.00 0.00 0.00 91 1015.1
20260504173021 17 94 0.0 0.0 0.00 0.00 0.00 91 1014.9
20260504172508 17 96 0.0 0.0 0.00 0.00 0.00 90 1015.1
20260504172013 17 105 0.0 0.0 0.00 0.00 0.00 89 1015.3
20260504171512 17 317 0.0 0.0 0.00 0.00 0.00 88 1015.2
20260504171013 17 8 8.0 9.7 0.00 0.00 0.00 88 1015.0
20260504170510 17 114 1.6 1.6 0.00 0.00 0.00 86 1015.3
20260504151014 21 129 0.0 0.0 0.00 0.00 0.00 66 1015.5
20260504141013 22 103 0.0 0.0 0.00 0.00 0.00 65 1016.0
20260504140510 20 112 0.0 0.0 0.00 0.00 0.00 70 1016.0
20260504130509 22 113 0.0 0.0 0.00 0.00 0.00 58 1016.4
20260504110509 22 346 0.0 0.0 0.00 0.00 0.00 55 1016.9
20260504100508 21 117 0.0 0.0 0.00 0.00 0.00 65 1017.3
20260504081514 18 48 0.0 0.0 0.00 0.00 0.00 78 1017.4
20260504081013 17 74 0.0 0.0 0.00 0.00 0.00 79 1017.4
20260504080509 17 89 0.0 0.0 0.00 0.00 0.00 78 1017.4